Weather History for Somerville, NJ

Change the Weather History Date:

Sunday, February 2, 2014

  Actual Average Record
Temperature  
Mean Temperature 36 °F -  
Max Temperature 51 °F 38 °F 65 °F (1989)
Min Temperature 21 °F 20 °F -6 °F (1961)
Degree Days  
Heating Degree Days 29    
Moisture  
Dew Point 28 °F    
Average Humidity 73    
Maximum Humidity 92    
Minimum Humidity 44    
Precipitation  
Precipitation 0.00 in - - ()
Sea Level Pressure  
Sea Level Pressure 29.98 in    
Wind  
Wind Speed 1 mph (NNW)    
Max Wind Speed 9 mph    
Max Gust Speed -    
Visibility 9 miles    
Events Rain    
Averages and records for this station are not official NWS values.
T = Trace of Precipitation, MM = Missing Value Source: NWS Daily Summary

Daily Weather History Graph

Daily Weather History Graph

Search for Another Location

Airport:

Trip Planner

Search our weather history database for the weather conditions in past years. The results will help you decide how hot, cold, wet, or windy it might be!

Date:

Astronomy

Feb. 02, 2014 Rise Set
Actual Time 7:07 AM EST 5:17 PM EST
Civil Twilight 6:38 AM EST 5:46 PM EST
Nautical Twilight 6:06 AM EST 6:19 PM EST
Astronomical Twilight 5:33 AM EST 6:51 PM EST
Moon 8:31 AM EST (2/2) 9:00 PM EST (2/2)
Length of Visible Light 11h 07m
Length of Day
10h 10m
Waxing Crescent, 11% of the Moon is Illuminated
Feb 2
Waxing Crescent
Feb 6
First Quarter
Feb 14
Full
Feb 22
Last Quarter
Mar 1
New

Hourly Weather History & Observations

Time (EST) Temp. Windchill Dew Point Humidity Pressure Visibility Wind Dir Wind Speed Gust Speed Precip Events Conditions
12:53 AM 26.1 °F - 23.0 °F 88% 29.99 in 9.0 mi Calm Calm - N/A   Clear
1:53 AM 25.0 °F - 21.9 °F 88% 29.97 in 10.0 mi Calm Calm - N/A   Clear
2:53 AM 24.1 °F - 21.0 °F 88% 29.95 in 9.0 mi Calm Calm - N/A   Clear
3:53 AM 23.0 °F - 19.9 °F 88% 29.94 in 9.0 mi Calm Calm - N/A   Clear
4:53 AM 21.9 °F - 19.9 °F 92% 29.93 in 8.0 mi Calm Calm - N/A   Clear
5:53 AM 21.0 °F - 19.0 °F 92% 29.93 in 7.0 mi Calm Calm - N/A   Clear
6:53 AM 21.9 °F - 19.0 °F 89% 29.95 in 10.0 mi Calm Calm - N/A   Clear
7:53 AM 23.0 °F - 19.9 °F 88% 29.96 in 9.0 mi Calm Calm - N/A   Clear
8:53 AM 28.9 °F - 25.0 °F 85% 29.96 in 6.0 mi Calm Calm - N/A   Clear
9:53 AM 36.0 °F - 28.9 °F 76% 29.96 in 8.0 mi Calm Calm - N/A   Clear
10:53 AM 44.1 °F - 30.9 °F 60% 29.98 in 9.0 mi Calm Calm - N/A   Mostly Cloudy
11:53 AM 46.0 °F - 30.9 °F 56% 29.96 in 10.0 mi Calm Calm - N/A   Overcast
12:53 PM 51.1 °F - 30.0 °F 44% 29.94 in 10.0 mi NW 9.2 mph - N/A   Overcast
1:53 PM 51.1 °F - 33.1 °F 50% 29.94 in 10.0 mi Calm Calm - N/A   Overcast
2:53 PM 51.1 °F - 35.1 °F 54% 29.92 in 10.0 mi Calm Calm - 0.00 in   Scattered Clouds
3:53 PM 50.0 °F - 35.1 °F 57% 29.94 in 10.0 mi West 3.5 mph - N/A   Clear
4:53 PM 48.9 °F - 36.0 °F 61% 29.97 in 10.0 mi West 4.6 mph - N/A   Partly Cloudy
5:53 PM 43.0 °F - 35.1 °F 74% 29.97 in 10.0 mi Calm Calm - N/A   Partly Cloudy
6:53 PM 39.0 °F - 34.0 °F 82% 30.01 in 10.0 mi Calm Calm - N/A   Overcast
7:53 PM 44.1 °F 40.8 °F 35.1 °F 71% 30.04 in 10.0 mi North 5.8 mph - N/A   Overcast
8:53 PM 43.0 °F 40.3 °F 35.1 °F 74% 30.07 in 10.0 mi North 4.6 mph - N/A   Overcast
9:53 PM 42.1 °F 37.7 °F 33.1 °F 70% 30.07 in 10.0 mi North 6.9 mph - N/A   Overcast
10:53 PM 41.0 °F 35.8 °F 30.0 °F 65% 30.09 in 10.0 mi North 8.1 mph - N/A   Overcast
11:53 PM 41.0 °F 37.1 °F 28.9 °F 62% 30.09 in 10.0 mi NNW 5.8 mph - 0.00 in Rain Light Rain